Location: Erp
(42.9417°N, 1.2009°E)
Time: 13:01:15
(UTC+00:00)

Cosmos 1959 Rocket - Pass Details

Date: 29 April 2026
Orbit: 946 x 997 km, 82.9° (Epoch: 12 May)

Event Time Altitude Azimuth Distance (km) Brightness Sun altitude
Rises 20:25:47 0° 237° (WSW) 3,692 7.8 -15.5°
Reaches altitude 10° 20:29:25 10° 258° (WSW) 2,740 7.4 -16.0°
Maximum altitude 20:33:10 16° 295° (WNW) 2,310 7.5 -16.5°
Drops below altitude 10° 20:36:55 10° 332° (NNW) 2,729 7.9 -17.0°
Sets 20:40:33 0° 353° (N) 3,670 8.3 -17.5°
